Tracking 25734 objects as of 27-May-2022
HD Live streaming from Space Station
objects crossing your sky now

STRV 1A

Track STRV 1A now!
10-day predictions
STRV 1A is classified as:


NORAD ID: 23125
Int'l Code: 1994-034B
Perigee: 249.0 km
Apogee: 25,416.4 km
Inclination: 7.3 °
Period: 441.4 minutes
Semi major axis: 19203 km
RCS: 0.2699 m2 (medium)
Launch date: June 17, 1994
Source: United Kingdom (UK)
Launch site: FRENCH GUIANA (FRGUI)
aabbcc
Your satellite tracking list
Your tracking list is empty




NASA's NSSDC Master Catalog

Two Line Element Set (TLE):
1 23125U 94034B   22146.43256007  .00007371  00000-0  10135-2 0  9995
2 23125   7.3253 144.0805 6552759  96.1609 336.5569  3.26231868284502
Source of the keplerian elements: AFSPC